Regional Weather Roundup
Issued by NWS Newport/Morehead, NC

Current Version | Previous Version | Text Only | Print | Product List | Glossary On
Versions: 1 2 3 4 5 6 7 8 9 10 11 12 13 14 15 16 17 18 19 20 21 22 23 24 25 26 27 28 29 30 31 32 33 34 35 36 37 38 39 40 41 42 43 44 45 46 47 48 49 50
000
ASUS42 KMHX 241513
RWRMHX
WEATHER ROUNDUP FOR EASTERN NORTH CAROLINA
NATIONAL WEATHER SERVICE NEWPORT/MOREHEAD CITY NC
1100 AM EDT WED MAY 24 2017

NOTE: "FAIR" INDICATES FEW OR NO CLOUDS BELOW 12,000 FEET
WITH NO SIGNIFICANT WEATHER AND/OR OBSTRUCTIONS TO VISIBILITY

NCZ015>017-031-032-045>047-102-103-241600-
NORTH COAST

CITY           SKY/WX    TMP DP  RH WIND       PRES   REMARKS
EDENTON        CLOUDY    68  64  87 CALM      29.73R
ELIZABETH CITY CLOUDY    64  63  96 NE6       29.73R
KITTY HAWK     CLOUDY    64  64 100 CALM      29.71R
MANTEO         CLOUDY    68  65  90 N6        29.72R

$$

NCZ045>047-081-094-103-104-241600-
CENTRAL COAST

CITY           SKY/WX    TMP DP  RH WIND       PRES   REMARKS
FRISCO         CLOUDY    76  68  76 SW7       29.73R

$$

NCZ095-097-098-100-101-241600-
SOUTHERN COAST

CITY           SKY/WX    TMP DP  RH WIND       PRES   REMARKS
BEAUFORT       CLOUDY    73  69  87 CALM      29.72S
CEDAR ISLAND   NOT AVBL
JACKSONVILLE   NOT AVBL
PINEY ISLAND   CLOUDY   N/A N/A N/A S6        29.71F
WILMINGTON     CLOUDY    75  69  81 W6        29.70S


$$

NCZ011>013-027>030-043-044-078>080-089-090>093-098-241600-
COASTAL PLAIN

CITY           SKY/WX    TMP DP  RH WIND       PRES   REMARKS
AHOSKIE        RAIN      64  62  94 E3        29.73R
CLINTON        CLOUDY    73  69  87 CALM      29.69S
ELIZABETHTOWN  PTSUNNY   73  68  82 S6        29.69F
GOLDSBORO      CLOUDY    73  70  88 CALM      29.68S
GREENVILLE     PTSUNNY   70  68  94 E5        29.74S FOG
HAVELOCK       CLOUDY    75  67  76 VRB3      29.71F
KENANSVILLE    CLOUDY    73  68  83 S3        29.71R
KINSTON        CLOUDY    73  64  73 SW9       29.71S
NEW BERN       PTSUNNY   75  67  76 CALM      29.72F
RICHLANDS      CLOUDY    73  69  87 S6        29.72R
ROCKY MOUNT    CLOUDY    67  65  93 NE8       29.71R
WASHINGTON     PTSUNNY   71  66  83 CALM      29.70F
WHITEVILLE     CLOUDY    74  68  81 SW5       29.69S

$$

AMZ130-135-150-152-154-156-158-170-250-252-270-ANZ085-086-088-633-658-670-241600-
MARINE OBSERVATIONS

STATION/POSITION TIME  TEMP    WIND        PRES    WAVE   SWELL
                       AIR SEA DIR/SP/G            HT/PER HT/PER
                 (UTC) (F)     (DEG/KT/KT) (MB)    (FT/S) (FT/S)
CHESAPEAKE LIGHT NOT AVBL
64 E VA BEACH    1450   60 63  320/  8/ 10 1006.1    5/ 7   5/ 7
DUCK             1448   61 64   20/  7/  8 1006.0
2 E DUCK         1500      65                N/A     3/ 5   2/11
OREGON INLET     1442   65 69   20/  6/  8 1006.0
13E OREGON INLT  1448      65                N/A     5/ 7   5/ 7
HATTERAS CG      1448   73 73  210/  8/ 10 1006.3
DIAMOND BUOY     1450   73 74  240/ 10/ 12 1006.6    5/ 8   3/ 8
CAPE LOOKOUT     1500   73     300/  3/  4 1006.1
BEAUFORT LAB     1448   73 72  200/  4/  5 1005.6
30 SE NEW RVR IN 1408   73 76  280/  6/ 10 1006.4
30 SE NEW RVR IN 1443      76                N/A     7/ 8   2/11
27 SE WRIGHTSVLE 1408   74 75  260/ 10/ 16 1005.0
5 SE WRIGHTSVLE  1408   73 74  250/  4/  6 1005.5
225 S CAPE HAT   1450   77 76  200/ 19/ 23 1010.5    9/ 7   2/12
41 SE CHARLESTON 1450   77 76  210/ 16/ 19 1006.0    6/ 7   3/13

$$




USA.gov is the U.S. government's official web portal to all federal, state and local government web resources and services.